This demonstration page uses our WeatherBlox Daily Observations layout. Learn more.

Left ArrowRight Arrow

41.86663, -103.66717

Hourly Observations for January 13, 2015

Temp ( °F °C ) Dew Point ( °F °C ) Humidity (%) Winds ( mph kmh ) Pressure ( in mb ) Visibility ( mi km ) Precip ( " mm )
12:53 am 00:53 Cloudy 19 -7.2 15 -9.4 84 84 ESE 13 20 30.39 1029 10 16 0.00 0.00
1:53 am 01:53 Cloudy 20 -6.7 16 -8.9 85 85 ESE 12 19 30.37 1029 10 16 0.00 0.00
2:53 am 02:53 Cloudy 21 -6.1 18 -7.8 88 88 E 10 17 30.35 1028 10 16 0.00 0.00
3:53 am 03:53 Cloudy 21 -6.1 17 -8.3 85 85 ESE 12 19 30.35 1028 10 16 0.00 0.00
4:53 am 04:53 Cloudy 21 -6.1 17 -8.3 85 85 ESE 10 17 30.33 1027 10 16 0.00 0.00
5:53 am 05:53 Cloudy 20 -6.7 16 -8.9 85 85 ESE 10 17 30.33 1027 10 16 0.00 0.00
6:53 am 06:53 Cloudy 20 -6.7 17 -8.3 89 89 E 9 15 30.33 1027 10 16 0.00 0.00
7:34 am 07:34 Partly Cloudy 18 -8 14 -10 86 86 SSW 3 6 30.45 1031 10 16 0.00 0.00
7:53 am 07:53 Mostly Sunny 18 -7.8 15 -9.4 88 88 SE 5 7 30.36 1028 10 16 0.00 0.00
8:39 am 08:39 Partly Cloudy with Mist and Fog 17 -8.3 14 -10 88 88 WNW 9 15 30.45 1031 5 8 0.00 0.00
8:50 am 08:50 Mostly Cloudy with Mist and Fog 18 -8 14 -10 86 86 NW 8 13 30.45 1031 4 6 0.00 0.00
8:53 am 08:53 Mostly Cloudy with Mist and Fog 16 -8.9 14 -10 92 92 NW 8 13 30.38 1029 4 6 0.00 0.00
9:53 am 09:53 Mostly Cloudy 16 -8.9 12 -11.1 84 84 WNW 7 11 30.41 1030 7 11 0.00 0.00
10:53 am 10:53 Cloudy 21 -6.1 17 -8.3 85 85 WNW 9 15 30.39 1029 8 13 0.00 0.00
11:09 am 11:09 Cloudy with Mist and Fog 21 -6.1 19 -7.2 92 92 W 13 20 30.45 1031 2 3 0.00 0.00
11:15 am 11:15 Cloudy with Mist and Fog 21 -6.1 19 -7.2 92 92 W 14 22 30.45 1031 2 3 0.00 0.00
11:26 am 11:26 Cloudy with Mist and Fog 22 -5.6 19 -7.2 89 89 W 10 17 30.45 1031 3 5 0.00 0.00
11:53 am 11:53 Cloudy with Mist and Fog 23 -5 20 -6.7 88 88 WNW 9 15 30.36 1028 3 5 0.00 0.00
12:13 pm 12:13 Cloudy with Mist and Fog 24 -4.4 21 -6.1 88 88 WNW 7 11 30.39 1029 4 6 0.00 0.00
12:53 pm 12:53 Cloudy with Haze 26 -3.3 21 -6.1 81 81 WNW 7 11 30.35 1028 5 8 0.00 0.00
1:20 pm 13:20 Cloudy with Haze 27 -3 21 -6 80 80 W 6 9 30.39 1029 6 10 0.00 0.00
1:53 pm 13:53 Cloudy with Haze 28 -2.2 23 -5 81 81 W 3 6 30.36 1028 6 10 0.00 0.00
2:19 pm 14:19 Cloudy 29 -1.7 23 -5 78 78 WNW 3 6 30.39 1029 7 11 0.00 0.00
2:53 pm 14:53 Cloudy 29 -1.7 23 -5 78 78 WNW 5 7 30.36 1028 7 11 0.00 0.00
3:53 pm 15:53 Mostly Cloudy 30 -1.1 24 -4.4 79 79 W 3 6 30.37 1028 7 11 0.00 0.00
4:53 pm 16:53 Clear 26 -3.3 22 -5.6 84 84 Calm 30.39 1029 7 11 0.00 0.00
5:53 pm 17:53 Clear with Mist and Fog 17 -8.3 15 -9.4 92 92 NW 5 7 30.45 1031 5 8 0.00 0.00
6:53 pm 18:53 Clear 19 -7.2 16 -8.9 88 88 NW 7 11 30.45 1031 10 16 0.00 0.00
7:53 pm 19:53 Clear 19 -7.2 15 -9.4 84 84 NNW 7 11 30.46 1032 10 16 0.00 0.00
8:53 pm 20:53 Clear 19 -7.2 14 -10 81 81 NW 3 6 30.47 1032 10 16 0.00 0.00
9:53 pm 21:53 Clear 17 -8.3 14 -10 88 88 NW 7 11 30.48 1032 10 16 0.00 0.00
10:53 pm 22:53 Clear 15 -9.4 12 -11.1 88 88 NW 7 11 30.48 1032 10 16 0.00 0.00
11:53 pm 23:53 Clear 10 -12.2 7 -13.9 87 87 NW 9 15 30.47 1032 10 16 0.00 0.00

Powered by AerisWeather